(91588) = 1999 TJ = 1997 HF10

Discovered at Prescott on 1999-10-02 by P. G. Comba.

Orbit

Orbit type: Main Belt

Note: WebGL enabled browser required.

epoch2023-09-13.0
epoch JD2460200.5
perihelion date2021-10-02.60802
perihelion JD2459490.10802
argument of perihelion (°)46.22998
ascending node (°)85.24358
inclination (°)2.22070
eccentricity0.0683487
perihelion distance (AU)2.7639649
Tisserand w.r.t. Jupiter3.3
ΔV w.r.t. Earth (km/sec)10.4
semimajor axis (AU)2.9667376
mean anomaly (°)137.01975
mean daily motion (°/day)0.19287910
aphelion distance (AU)3.170
period (years)5.11
P-vector [x]-0.66173393
P-vector [y]0.67626224
P-vector [z]0.32369366
Q-vector [x]-0.74874364
Q-vector [y]-0.61832688
Q-vector [z]-0.23886151
absolute magnitude15.61
phase slope0.15
uncertainty0
referenceMPEC 2023-X132
observations used638
oppositions17
arc length (days)10092
first opposition used1994
last opposition used2022
residual rms (arc-secs)0.72
perturbers coarse indicatorM-v
perturbers precise indicator003Ek
first observation date used1994-10-08.0
last observation date used2022-05-26.0
computer nameMPCLINUX
JD of orbit computation2456937.496527
perihelion JD uncertainty (days)1.7754E-04
argument of perihelion uncertainty (°)1.2027E-04
ascending node uncertainty (°)1.1558E-04
inclination uncertainty (°)2.7281E-06
eccentricity uncertainty 3.9285E-08
perihelion distance uncertainty (AU)1.1059E-07
Minimum Orbit Intersection Distances (in AU)
for orbit epoch: 2460200.5, reference: E2023-XD2
Mercury2.41899
Venus2.04571
Earth1.77772
Mars1.10593
Jupiter1.84872
Saturn6.2153
Uranus15.6427
Neptune26.7923

Observations

655 total observations over interval: 1994 10 08.41973 – 2022 05 26.205886
These data are available for download (format description).

Date (UT) J2000 RA J2000 Dec Magn Location Ref
1994 10 08.41973 01 56 04.02 +08 49 04.3   691 – Steward Observatory, Kitt Peak-Spacewatch MPS 15244
1994 10 08.45204 01 56 02.60 +08 48 58.0   691 – Steward Observatory, Kitt Peak-Spacewatch MPS 15244
1994 10 08.48436 01 56 01.09 +08 48 49.5 19.3 V 691 – Steward Observatory, Kitt Peak-Spacewatch MPS 15244
1994 11 01.16460 01 37 21.59 +07 11 42.7 19.8 V 691 – Steward Observatory, Kitt Peak-Spacewatch MPS 79599
1994 11 01.18619 01 37 20.55 +07 11 37.7 19.7 V 691 – Steward Observatory, Kitt Peak-Spacewatch MPS 79599
1994 11 01.20781 01 37 19.54 +07 11 32.9 19.7 V 691 – Steward Observatory, Kitt Peak-Spacewatch MPS 79599
1997 04 30.21356 14 38 52.67 -13 00 03.1 19.6   704 – Lincoln Laboratory ETS, New Mexico MPC 29839
1997 04 30.23584 14 38 51.72 -13 00 00.6 20.5   704 – Lincoln Laboratory ETS, New Mexico MPC 29839
1997 04 30.25834 14 38 50.36 -12 59 53.4 19.8   704 – Lincoln Laboratory ETS, New Mexico MPC 29839
1997 04 30.28074 14 38 49.29 -12 59 50.5 20.0   704 – Lincoln Laboratory ETS, New Mexico MPC 29839
1997 04 30.30333 14 38 47.99 -12 59 45.2 20.1   704 – Lincoln Laboratory ETS, New Mexico MPC 29839
1997 05 01.21969 14 38 03.13 -12 56 39.9 19.6   704 – Lincoln Laboratory ETS, New Mexico MPC 29839
1997 05 01.24211 14 38 01.89 -12 56 35.0 19.9   704 – Lincoln Laboratory ETS, New Mexico MPC 29839
1997 05 01.26454 14 38 00.81 -12 56 30.2 19.9   704 – Lincoln Laboratory ETS, New Mexico MPC 29839
1997 05 01.28701 14 37 59.68 -12 56 25.8 20.3   704 – Lincoln Laboratory ETS, New Mexico MPC 29839
1999 10 02.31316 01 20 05.15 +05 07 28.6   684 – Prescott MPS 6887
1999 10 02.31813 01 20 04.90 +05 07 27.6   684 – Prescott MPS 6887
1999 10 02.32649 01 20 04.53 +05 07 26.0   684 – Prescott MPS 6887
1999 10 03.30410 01 19 20.89 +05 03 01.7 19.4 R 684 – Prescott MPS 6887
1999 10 03.31723 01 19 20.27 +05 02 58.0   684 – Prescott MPS 6887
1999 11 01.25587 00 57 37.60 +03 02 01.3 20.2 V 691 – Steward Observatory, Kitt Peak-Spacewatch MPS 13675
1999 11 01.28089 00 57 36.59 +03 01 56.6 20.4 V 691 – Steward Observatory, Kitt Peak-Spacewatch MPS 13675
1999 11 01.30276 00 57 35.73 +03 01 52.2 20.1 V 691 – Steward Observatory, Kitt Peak-Spacewatch MPS 13675
1999 11 05.20855 00 55 13.30 +02 50 22.0 20.3 V 691 – Steward Observatory, Kitt Peak-Spacewatch MPS 13675
1999 11 05.22966 00 55 12.53 +02 50 18.5 20.3 V 691 – Steward Observatory, Kitt Peak-Spacewatch MPS 13675
1999 11 05.25184 00 55 11.74 +02 50 14.8 20.4 V 691 – Steward Observatory, Kitt Peak-Spacewatch MPS 13675
1999 11 12.18404 00 51 38.35 +02 34 31.5 20.2 V 691 – Steward Observatory, Kitt Peak-Spacewatch MPS 15244
1999 11 12.22408 00 51 37.22 +02 34 27.2 20.4 V 691 – Steward Observatory, Kitt Peak-Spacewatch MPS 15244
1999 11 12.25802 00 51 36.25 +02 34 23.4 20.3 V 691 – Steward Observatory, Kitt Peak-Spacewatch MPS 15244
2000 12 27.26756 07 48 19.17 +22 26 20.7 19.0 R 699 – Lowell Observatory-LONEOS MPS 23686
2000 12 27.28328 07 48 18.38 +22 26 20.6   699 – Lowell Observatory-LONEOS MPS 23686
2000 12 27.29900 07 48 17.62 +22 26 27.2   699 – Lowell Observatory-LONEOS MPS 23686
2000 12 27.31474 07 48 16.82 +22 26 29.1   699 – Lowell Observatory-LONEOS MPS 23686
2001 01 02.30459 07 43 18.81 +22 44 10.6 18.6   704 – Lincoln Laboratory ETS, New Mexico MPS 23686
2001 01 02.33567 07 43 17.07 +22 44 17.0 19.2   704 – Lincoln Laboratory ETS, New Mexico MPS 23686
2001 01 02.35088 07 43 16.26 +22 44 19.0 19.0   704 – Lincoln Laboratory ETS, New Mexico MPS 23686
2001 01 03.30636 07 42 26.19 +22 47 09.9 18.9   704 – Lincoln Laboratory ETS, New Mexico MPS 23686
2001 01 03.32208 07 42 25.29 +22 47 12.8 19.2   704 – Lincoln Laboratory ETS, New Mexico MPS 23686
2001 01 03.33732 07 42 24.49 +22 47 14.4 19.2   704 – Lincoln Laboratory ETS, New Mexico MPS 23686
2001 01 03.35258 07 42 23.70 +22 47 17.7 19.4   704 – Lincoln Laboratory ETS, New Mexico MPS 23686
2001 01 03.38586 07 42 21.86 +22 47 22.3 18.5 R 684 – Prescott MPS 23686
2001 01 03.38946 07 42 21.68 +22 47 23.2   684 – Prescott MPS 23686
2001 01 04.44686 07 41 25.31 +22 50 30.8   684 – Prescott MPS 23686
2001 01 04.45119 07 41 25.08 +22 50 31.7   684 – Prescott MPS 23686
2001 01 04.45706 07 41 24.74 +22 50 32.4 18.6 R 684 – Prescott MPS 23686
2001 01 21.30473 07 25 57.88 +23 36 24.5 19.1   704 – Lincoln Laboratory ETS, New Mexico MPS 24991
2001 01 21.31992 07 25 57.07 +23 36 26.8 19.3   704 – Lincoln Laboratory ETS, New Mexico MPS 24991
2001 01 21.33508 07 25 56.26 +23 36 29.4 19.3   704 – Lincoln Laboratory ETS, New Mexico MPS 24991
2001 01 21.35023 07 25 55.48 +23 36 31.9 19.5   704 – Lincoln Laboratory ETS, New Mexico MPS 24991
2001 01 21.36537 07 25 54.61 +23 36 34.1 19.8   704 – Lincoln Laboratory ETS, New Mexico MPS 24991
2004 09 17.28715 00 48 23.04 +01 42 35.0 20.5   704 – Lincoln Laboratory ETS, New Mexico MPS 114069
2004 09 17.29883 00 48 22.56 +01 42 30.7 20.2   704 – Lincoln Laboratory ETS, New Mexico MPS 114069
2004 09 17.32220 00 48 21.49 +01 42 24.0 20.2   704 – Lincoln Laboratory ETS, New Mexico MPS 114069
2004 09 24.351817 00 43 20.048 +01 09 15.29 20.06 V 645 – Apache Point-Sloan Digital Sky Survey MPS 389747
2004 09 24.355289 00 43 19.890 +01 09 14.22 20.86   645 – Apache Point-Sloan Digital Sky Survey MPS 389747
2004 10 10.18300 00 31 13.68 -00 05 26.6 20.0 V 691 – Steward Observatory, Kitt Peak-Spacewatch MPS 116338
2004 10 10.21500 00 31 12.20 -00 05 35.0 19.8 V 691 – Steward Observatory, Kitt Peak-Spacewatch MPS 116338
2004 10 10.24273 00 31 10.88 -00 05 41.9 19.6 V 691 – Steward Observatory, Kitt Peak-Spacewatch MPS 116338
2004 10 10.270597 00 31 09.580 -00 05 50.00 19.91 V 645 – Apache Point-Sloan Digital Sky Survey MPS 389747
2004 10 10.274069 00 31 09.417 -00 05 50.92 20.79   645 – Apache Point-Sloan Digital Sky Survey MPS 389747
2004 10 11.22187 00 30 26.97 -00 09 59.6 19.5 R G70 – Francisquito Observatory, Los Angeles MPS 116338
2004 10 11.23961 00 30 26.11 -00 10 04.2 20.2 V 291 – LPL/Spacewatch II MPS 116338
2004 10 11.24606 00 30 25.81 -00 10 06.0 20.1 V 291 – LPL/Spacewatch II MPS 116338
2004 10 11.24957 00 30 25.70 -00 10 06.4 19.6 R G70 – Francisquito Observatory, Los Angeles MPS 116338
2004 10 11.25222 00 30 25.52 -00 10 07.7 20.1 V 291 – LPL/Spacewatch II MPS 116338
2004 10 11.27725 00 30 24.43 -00 10 13.8 19.4 R G70 – Francisquito Observatory, Los Angeles MPS 116338
2004 10 16.315217 00 26 45.111 -00 31 05.86 20.02 V 645 – Apache Point-Sloan Digital Sky Survey MPS 389747
2004 10 16.318689 00 26 44.959 -00 31 06.75 20.82   645 – Apache Point-Sloan Digital Sky Survey MPS 389747
2004 12 13.122277 00 16 42.498 -00 39 12.45 21.05 V 645 – Apache Point-Sloan Digital Sky Survey MPS 389747
2004 12 13.125749 00 16 42.582 -00 39 11.67 22.02   645 – Apache Point-Sloan Digital Sky Survey MPS 389747
2005 11 29.42104 07 07 11.02 +22 57 31.7 19.7 V G96 – Mt. Lemmon Survey MPS 153193
2005 11 29.43571 07 07 10.63 +22 57 33.0 19.8 V G96 – Mt. Lemmon Survey MPS 153193
2005 11 29.45037 07 07 10.23 +22 57 34.2 19.6 V G96 – Mt. Lemmon Survey MPS 153193
2005 12 01.43766 07 06 15.91 +23 00 38.9 19.7 V 691 – Steward Observatory, Kitt Peak-Spacewatch MPS 153193
2005 12 01.45495 07 06 15.36 +23 00 40.7 19.7 V 691 – Steward Observatory, Kitt Peak-Spacewatch MPS 153193
2005 12 01.47231 07 06 14.82 +23 00 42.0 19.8 V 691 – Steward Observatory, Kitt Peak-Spacewatch MPS 153193
2005 12 04.32931 07 04 45.91 +23 05 22.8 19.3   704 – Lincoln Laboratory ETS, New Mexico MPS 155000
2005 12 04.35536 07 04 45.10 +23 05 26.1 20.0   704 – Lincoln Laboratory ETS, New Mexico MPS 155000
2005 12 04.38127 07 04 44.21 +23 05 28.3 19.4   704 – Lincoln Laboratory ETS, New Mexico MPS 155000
2005 12 05.45878 07 04 07.13 +23 07 18.9 19.8 V 691 – Steward Observatory, Kitt Peak-Spacewatch MPS 155000
2005 12 05.47607 07 04 06.49 +23 07 20.6 19.8 V 691 – Steward Observatory, Kitt Peak-Spacewatch MPS 155000
2005 12 05.49344 07 04 05.86 +23 07 22.2 19.7 V 691 – Steward Observatory, Kitt Peak-Spacewatch MPS 155000
2005 12 08.38252 07 02 18.79 +23 12 29.8 19.6 V 691 – Steward Observatory, Kitt Peak-Spacewatch MPS 155000
2005 12 08.40274 07 02 17.97 +23 12 31.7 19.6 V 691 – Steward Observatory, Kitt Peak-Spacewatch MPS 155000
